Regional Weather Roundup
Issued by NWS

Home | Current Version | Previous Version | Graphics & Text | Print | Product List | Glossary On
Versions: 1 2 3 4 5 6 7 8 9 10 11 12 13 14 15 16 17 18 19 20 21 22 23 24 25 26 27 28 29 30 31 32 33 34 35 36 37 38 39 40 41 42 43 44 45 46 47 48 49 50
000
ASUS43 KMKX 181120
RWRWI

WISCONSIN REGIONAL WEATHER ROUNDUP
NATIONAL WEATHER SERVICE MILWAUKEE/SULLIVAN WI
500 AM CST THU JAN 18 2018

NOTE: "FAIR" INDICATES FEW OR NO CLOUDS BELOW 12,000 FEET WITH NO
SIGNIFICANT WEATHER AND/OR OBSTRUCTIONS TO VISIBILITY.

WIZ001-002-006>008-014>016-023>028-181200-
NORTHWEST WISCONSIN

CITY           SKY/WX    TMP DP  RH WIND       PRES   REMARKS
SUPERIOR ARPT  FAIR      26  19  77 SW9       29.76F WCI  16
ASHLAND        NOT AVBL
HAYWARD        FAIR      23  16  74 VRB3      29.82F
SIREN          FAIR      27  19  73 W7        29.85R WCI  19
CUMBERLAND     FAIR      23  18  80 SW10      29.84F WCI  12
RICE LAKE      FAIR      23  18  80 CALM      29.86F
CHETEK         FAIR      21  16  82 CALM      29.88F
LADYSMITH      FAIR      18  15  88 S6        29.85F WCI  10
EAU CLAIRE     FAIR      23  16  74 SW9       29.92F WCI  13
MENOMONIE      FAIR      23  17  77 S3        29.92F
NEW RICHMOND   FAIR      22  16  78 S9        29.88F WCI  12
OSCEOLA        FAIR      23  18  80 S6        29.90F WCI  16
$$

WIZ003>005-009-010-017-018-181200-
NORTH CENTRAL WISCONSIN

CITY           SKY/WX    TMP DP  RH WIND       PRES   REMARKS
MANITOWISH WTR FAIR      18  16  91 SW6       29.79F WCI  10
ARBOR VITAE    FAIR      22  18  85 SW5       29.79F WCI  15
WOODRUFF       FAIR      22  18  85 SW5       29.79F WCI  15
RHINELANDER    FAIR      18  15  88 SW9       29.81F WCI   7
EAGLE RIVER    FAIR      13  10  87 SW6       29.79S WCI   4
LAND O LAKES   FAIR      20  17  86 SW5       29.79F WCI  14
PHILLIPS       FAIR      20  16  84 SW9       29.80F WCI  10
TOMAHAWK       FAIR      19  15  84 CALM      29.84F
MEDFORD        FAIR      18  14  83 SW7       29.88F WCI   9
MERRILL        FAIR      17  13  86 CALM      29.88F
$$

WIZ029-030-035-036-043>047-181200-
CENTRAL WISCONSIN

CITY           SKY/WX    TMP DP  RH WIND       PRES   REMARKS
WAUSAU         FAIR      18  13  80 SW5       29.89F WCI  11
MOSINEE        FAIR      18  14  86 SW9       29.92F WCI   6
MARSHFIELD     FAIR      16  12  84 SW8       29.91F WCI   5
STEVENS POINT  FAIR      17  13  82 SW6       29.94F WCI   9
WAUPACA        FAIR      22  14  71 SW7       29.96F WCI  14
WAUTOMA        FAIR      16  11  80 SW6       29.99F WCI   7
WISC RAPIDS    FAIR      17  10  74 SW8       29.97F WCI   7
CAMP DOUGLAS   FAIR      19  12  75 SW9       29.99F WCI   7
$$

WIZ011>013-019>022-031-037>040-048>050-181200-
NORTHEAST WISCONSIN

CITY           SKY/WX    TMP DP  RH WIND       PRES   REMARKS
ANTIGO         FAIR      18  14  85 W9        29.86S WCI   6
SHAWANO        FAIR      22  15  74 SW6       29.92S WCI  15
OCONTO         FAIR      19  12  75 SW5       29.92S WCI  12
STURGEON BAY   FAIR      20  13  74 SW15      29.92F WCI   6
GREEN BAY      FAIR      18  10  71 SW8       29.94F WCI   8
MANITOWOC      FAIR      20  12  71 W14G22    29.96F WCI   7
APPLETON       FAIR      18  10  73 SW12      29.93F WCI   5
CLINTONVILLE   FAIR      19  12  73 SW8       29.93F WCI   9
OSHKOSH        FAIR      19  11  70 SW8       29.98F WCI   9
$$

WIZ032>034-041-042-053>061-181200-
SOUTHWEST WISCONSIN

CITY           SKY/WX    TMP DP  RH WIND       PRES   REMARKS
LA CROSSE      FAIR      19  11  70 S12       30.03F WCI   7
SPARTA         FAIR      18  13  80 S3        30.02F
VIROQUA        FAIR      16  12  86 SW8       30.00F WCI   5
BOSCOBEL       FAIR      17   9  70 SW6       30.10F WCI   9
PRAIRIE DU CHI FAIR      17   9  68 S3        30.10F
PLATTEVILLE    FAIR      17  12  79 SW9       30.10F WCI   6
$$

WIZ056-057-062-063-064-067-068-181200-
SOUTH CENTRAL WISCONSIN

CITY           SKY/WX    TMP DP  RH WIND       PRES   REMARKS
REEDSBURG      FAIR      19  11  73 SW9       30.03F WCI   8
BARABOO/DELLS  FAIR      19  11  72 SW12      30.02S WCI   6
LONE ROCK      FAIR      16   9  74 W6        30.08F WCI   7
MINERAL POINT  FAIR      19  14  79 SW12      30.07S WCI   7
MADISON        FAIR      18  10  71 SW5       30.06F WCI  11
MIDDLETON      FAIR      20  12  71 W10       30.05F WCI   9
WATERTOWN      FAIR      18  11  76 SW10      30.05S WCI   6
MONROE         FAIR      18  10  73 SW16      30.07F WCI   3
JANESVILLE     FAIR      18  10  73 SW10      30.10S WCI   6
$$

WIZ051-052-058>065-066-070>072-181200-
SOUTHEAST WISCONSIN

CITY           SKY/WX    TMP DP  RH WIND       PRES   REMARKS
MILWAUKEE      FAIR      21  11  65 W14G23    30.05F WCI   8
WAUKESHA       FAIR      18  10  73 SW13      30.06S WCI   4
MILWAUKEE/TIMM FAIR      19   9  63 W14G20    30.05S WCI   6
RACINE         FAIR      19  10  68 W14G23    30.08F WCI   6
BURLINGTON     FAIR      17   9  69 SW10G16   30.09S WCI   5
KENOSHA        FAIR      18   9  68 SW12      30.08F WCI   5
FOND DU LAC    FAIR      18   8  65 SW8       30.00F WCI   8
SHEBOYGAN      FAIR      20  12  71 SW13      29.99S WCI   7
WEST BEND      FAIR      19  12  73 W8        30.02R WCI   9
JUNEAU         FAIR      17  10  75 SW13      30.04S WCI   3
$$

LSZ147-162-181200-
LAKE SUPERIOR

STATION/POSITION TIME  TEMP    WIND        PRES    WAVE
                       AIR SEA DIR/SP/G            HT/PER
                 (UTC) (F)     (DEG/KT/KT) (MB)    (FT/S)
DEVILS ISLAND    1100   30     220/ 14/ 17 1007.8F
SAXON HARBOR     1040   28     210/ 12/ 18 1008.1F
$$

LMZ867-665-643>646-181200-
LAKE MICHIGAN

STATION/POSITION TIME  TEMP    WIND        PRES    WAVE
                       AIR SEA DIR/SP/G            HT/PER
                 (UTC) (F)     (DEG/KT/KT) (MB)    (FT/S)
NORTHPORT PIER   1103   21     230/  9/ 36 1012.2
KEWAUNEE LAKESHO 1054   20     260/  6/  9 1013.3F
SHEBOYGAN LAKESH 1100   22     250/ 13/ 17 1016.3F
PORT WASHINGTON  1040   21     260/  9/ 15 1017.6S
MILWAUKEE LAKESH 1050   21     260/ 15/ 20   N/A
KENOSHA   LAKESH 1100   19     250/ 11/ 16 1019.0
$$

TC  - TEMPERATURE IN CELSIUS
VSB - VISIBILITY IN STATUTE MILES
WCI - WIND CHILL INDEX
HX  - HEAT INDEX





USA.gov is the U.S. government's official web portal to all federal, state and local government web resources and services.